EHI
0 0 0 0 0 0 0 0 0 0 0 0 0 0 0 0 0 0 0 0 0 0 0 0 0 0 0 0 0 0 0 0 0 0 0 0 0 0 0 0 0 0 0 0
0 0 0 0 0 0 0 0 0 0 0 0 0 0 0 0 0 0 0 0 0 0 0 0 0 0 0 0 0 0 0 0 0 0 0 0 0 0 0 0 0 0 0 0
0 0 0 0 0 0 0 0 0 0 0 0 0 0 0 0 0 0 0 0 0 0 0 0 0 0 0 0 0 0 0 0 0 0 0 0 0 0 0 0 0 0 0 0
0 0 0 0 0 0 0 0 0 0 0 0 0 0 0 0 0 0 0 0 0 0 0 0 0 0 0 0 0 0 0 0 0 0 0 0 0 0 0 0 0 0 0 0
0 0 0 0 0 0 0 0 0 0 0 0 0 0 0 0 0 0 0 0 0 0 0 0 0 0 0 0 0 0 0 0 0 0 0 0 0 0 0 0 0 0 0 0
0 0 0 0 0 0 0 0 0 0 0 0 0 0 0 0 0 0 0 0 0 0 0 0 0 0 0 0 0 1 0 0 0 0 0 0 0 0 0 0 0 0 0 0
0 0 0 0 0 0 0 0 0 0 0 0 0 0 0 0 0 0 0 0 0 0 0 0 0 0 0 0 0 0 0 0 0 0 0 0 0 0 0 0 0 0 0 0
0 0 0 0 0 0 0 0 0 0 0 0 0 0 0 0 0 0 0 0 0 0 0 0 0 0 0 0 0 0 0 0 0 0 0 0 0 0 0 0 0 0 0 0
0 0 0 0 0 0 0 0 0 0 0 0 0 0 0 0 0 0 0 0 0 0 0 0 0 0 0 0 0 0 0 0 0 0 0 0 0 0 0 0 0 0 0 0
0 0 0 0 0 0 0 0 0 0 0 0 0 0 0 0 0 0 0 0 0 0 0 0 0 0 0 0 0 0 0 0 0 0 0 0 0 0 0 0 0 0 0 0
0 0 0 0 0 0 0 0 0 0 0 0 0 0 0 0 0 0 0 0 0 0 0 0 0 0 0 0 0 0 0 0 0 0 0 0 0 0 0 0 0 0 0 0
0 0 0 0 0 0 0 0 0 0 0 0 0 0 0 0 0 0 0 0 0 0 0 0 0 0 0 0 0 0 0 0 0 0 0 0 0 0 0 0 0 0 0 0
0 0 0 0 0 0 0 0 0 0 0 0 0 0 0 0 0 0 0 0 0 0 0 0 0 0 0 0 0 0 0 0 0 0 0 0 0 0 0 0 0 0 0 0
0 0 0 0 0 0 0 0 0 0 0 0 0 0 0 0 0 0 0 0 0 0 0 0 0 0 0 0 0 0 0 0 0 0 0 0 0 0 0 0 0 0 0 0
0 0 0 0 0 0 0 0 0 0 0 0 0 0 0 0 0 0 0 0 0 0 0 0 0 0 0 0 0 0 0 0 0 0 0 0 0 0 0 0 0 0 0 0
0 0 0 0 0 0 0 0 0 0 0 0 0 0 0 0 0 0 0 0 0 0 0 0 0 0 0 0 0 0 0 0 0 0 0 0 0 0 0 0 0 0 0 0
0 0 0 0 0 0 0 0 0 0 0 0 0 0 0 0 0 0 0 0 0 0 0 0 0 0 0 0 0 0 0 0 0 0 0 0 0 0 0 0 0 0 0 0
0 0 0 0 0 0 0 0 0 0 0 0 0 0 0 0 0 0 0 0 0 0 0 0 0 0 0 0 0 0 0 0 0 0 0 0 0 0 0 0 0 0 0 0
0 0 0 0 0 0 0 0 0 0 0 0 0 0 0 0 0 0 0 0 0 0 0 0 0 0 0 0 0 0 0 0 0 0 0 0 0 0 0 0 0 0 0 0
0 0 0 0 0 0 0 0 0 0 0 0 0 0 0 0 0 0 0 0 0 0 0 0 0 0 0 0 0 0 0 0 0 0 0 0 0 0 0 0 0 0 0 0
0 0 0 0 0 0 0 0 0 0 0 0 0 0 0 0 0 0 0 0 0 0 0 0 0 0 0 0 0 0 0 0 0 0 0 0 0 0 0 0 0 0 0 0
0 0 0 0 0 0 0 0 0 0 0 0 0 0 0 0 0 0 0 0 0 0 0 0 0 0 0 0 0 0 0 0 0 0 0 0 0 0 0 0 0 0 0 0
0 0 0 0 0 0 0 0 0 0 0 0 0 0 0 0 0 0 0 0 0 0 0 0 0 0 0 0 0 0 0 0 0 0 0 0 0 0 0 0 0 0 0 0
0 0 0 0 0 0 0 0 0 0 0 0 0 0 0 0 0 0 0 0 0 0 0 0 0 0 0 0 0 0 0 0 0 0 0 0 0 0 0 0 0 0 0 0
0 0 0 0 0 0 0 0 0 0 0 0 0 0 0 0 0 0 0 0 0 0 0 0 0 0 0 0 0 0 0 0 0 0 0 0 0 0 0 0 0 0 0 0
0 0 0 0 0 0 0 0 0 0 0 0 0 0 0 0 0 0 0 0 0 0 0 0 0 0 0 0 0 0 0 0 0 0 0 0 0 0 0 0 0 0 0 0
Wind_Speed
3 1 1 1 1 3 3 6 8 5 3 7 10 11 9 5 5 6 5 5 5 5 4 4 3 4 4 4 4 4 5 5 4 3 3 3 3 2 2 1 2 1 1 1
2 1 1 1 1 2 4 6 7 5 3 6 9 12 8 5 5 4 5 5 6 5 4 4 4 4 4 4 5 4 4 5 5 3 3 3 4 3 2 2 2 2 1 1
1 3 2 1 0 3 5 6 7 8 7 5 9 8 4 3 4 4 4 4 4 5 5 5 5 4 4 5 5 4 5 5 5 5 3 3 2 2 2 2 2 2 2 2
1 1 1 1 1 3 5 3 6 7 7 4 4 7 3 2 3 3 3 3 4 4 5 5 5 5 5 5 5 5 5 5 5 4 3 4 3 3 4 3 2 3 2 2
1 1 1 2 2 3 4 4 5 6 5 6 4 7 5 1 4 3 3 3 4 5 6 6 6 6 5 5 5 5 5 5 5 4 4 4 4 4 4 3 3 3 2 2
0 1 2 2 2 1 3 3 3 3 4 6 4 6 6 1 3 3 3 4 5 6 6 6 6 6 5 5 5 5 5 6 5 5 4 5 5 5 5 5 4 3 2 2
1 2 1 1 2 1 2 3 3 3 4 4 2 6 7 1 1 3 4 4 6 6 7 6 7 7 6 6 5 5 5 6 6 5 5 5 6 6 6 5 5 3 3 3
3 2 2 0 1 2 1 3 3 5 5 4 3 7 3 0 2 3 3 4 6 6 7 7 7 7 7 7 6 5 5 6 6 6 5 5 6 5 4 5 5 4 3 4
3 2 2 1 1 1 2 2 2 3 4 7 6 5 4 1 1 2 3 4 6 7 8 8 8 7 8 8 7 6 6 6 6 6 5 5 5 5 5 5 5 4 4 4
2 4 1 0 2 1 2 1 2 4 5 7 7 7 4 2 3 3 3 5 7 8 8 9 8 8 8 8 7 6 5 6 6 6 5 5 5 5 5 5 5 5 5 4
2 4 2 2 4 3 4 3 3 3 4 6 7 4 0 2 2 3 4 6 7 8 8 8 8 8 8 7 7 6 5 5 6 6 6 6 6 5 5 5 5 5 5 5
2 3 4 3 1 1 3 4 5 5 5 5 6 6 2 1 2 3 5 6 7 8 8 8 8 8 8 8 7 7 6 6 6 6 6 6 6 5 5 5 5 5 5 5
4 3 4 3 3 3 4 4 5 3 3 6 8 8 3 0 3 5 6 7 7 8 8 7 8 8 8 8 7 7 7 7 6 6 6 6 6 5 5 5 5 5 5 5
4 5 7 8 4 2 5 6 7 7 6 8 12 14 9 8 8 7 7 8 7 8 8 8 8 8 8 8 7 7 8 7 7 6 6 6 6 6 6 5 5 6 5 5
3 6 7 9 8 7 9 10 10 12 12 12 12 13 14 10 9 7 7 7 7 8 9 9 10 10 9 9 8 8 8 8 7 7 7 6 6 6 6 5 5 5 5 5
3 4 3 7 7 8 10 12 13 14 14 16 17 17 10 7 6 7 7 7 8 9 9 10 10 11 10 10 9 8 8 8 8 7 7 6 6 6 6 6 5 5 5 5
5 5 4 5 2 6 10 10 11 8 9 9 12 9 5 6 7 8 8 8 8 9 9 10 10 10 10 10 9 9 9 8 8 7 7 7 6 6 6 6 6 5 5 5
5 5 3 4 2 9 3 2 4 8 8 9 9 7 7 8 9 8 7 7 8 9 10 10 10 10 10 10 9 9 8 8 7 7 7 7 7 6 6 6 6 6 5 5
5 5 4 3 5 9 4 2 4 5 7 6 7 7 7 7 8 7 4 5 8 9 9 9 9 10 10 9 9 8 8 7 7 7 7 7 7 7 6 6 6 6 5 5
2 3 4 4 6 8 1 3 2 3 6 3 4 6 6 5 7 5 4 7 9 9 8 8 9 9 9 9 8 8 8 8 8 8 8 7 7 7 6 7 7 6 5 5
3 4 6 7 8 9 0 3 4 4 3 1 3 5 5 5 7 7 8 8 8 8 8 8 8 8 8 8 8 8 8 8 8 8 8 7 6 6 6 6 6 5 5 5
6 6 6 6 8 8 4 5 5 4 3 3 4 5 6 7 8 8 8 8 8 8 8 8 7 8 8 7 7 8 8 9 9 8 7 7 6 5 5 5 5 5 5 4
7 6 5 8 7 2 4 5 3 2 4 5 5 5 6 7 8 8 8 8 8 8 7 7 7 8 8 7 7 8 9 9 9 8 7 7 6 5 5 5 4 4 4 3
5 3 5 7 8 6 7 6 5 5 6 6 5 5 5 7 8 8 8 7 7 7 7 6 7 7 8 8 8 8 8 8 8 7 6 5 5 5 4 4 3 4 4 3
4 5 5 8 7 6 6 6 6 5 5 5 5 5 6 7 8 8 7 7 7 7 6 6 6 7 8 8 8 8 7 7 7 7 6 5 5 4 4 4 4 5 4 4
5 6 6 6 4 5 5 4 4 5 5 5 5 6 6 6 7 7 7 7 7 7 6 6 7 7 8 8 8 8 7 6 6 6 5 4 4 4 4 4 4 5 6 7
Wind_Direction
36 79 60 339 280 287 278 270 278 288 316 289 272 279 285 281 276 275 273 277 278 282 295 305 311 317 321 326 326 329 330 328 323 316 316 312 307 303 293 292 272 265 281 285
144 75 340 346 280 261 260 270 281 285 301 289 288 284 283 273 252 267 273 274 281 288 301 314 316 320 320 318 317 318 319 318 317 310 303 287 288 287 287 290 282 279 275 279
124 65 67 135 306 278 261 268 283 290 301 263 290 273 239 238 246 256 271 282 291 294 296 305 309 309 312 312 312 310 310 309 310 311 301 296 286 281 277 278 272 284 291 276
81 37 244 259 287 286 277 291 286 287 287 278 300 285 260 265 251 255 270 280 291 301 300 301 301 303 308 308 308 306 307 307 309 308 297 292 288 286 287 279 277 271 276 289
97 75 302 270 300 273 293 313 281 272 264 273 240 259 272 221 260 261 276 293 300 304 301 301 298 297 302 306 307 306 309 306 304 302 298 287 283 279 284 278 272 270 267 268
52 58 336 324 330 293 296 271 236 229 237 255 240 246 272 221 273 291 305 321 318 316 311 303 302 301 301 308 309 307 307 308 304 298 297 290 286 286 288 293 280 271 270 267
266 160 76 323 280 169 304 282 273 253 235 253 171 239 260 321 302 295 299 314 324 323 316 310 313 314 309 307 306 305 305 306 306 300 294 288 287 286 281 279 274 274 269 269
285 249 133 28 302 295 256 272 279 282 283 294 219 244 261 25 331 304 298 305 319 325 324 315 312 314 315 310 301 301 300 300 304 301 298 291 288 283 283 286 283 272 269 269
270 268 92 68 7 274 203 200 329 277 280 274 257 264 271 234 287 305 312 329 330 332 328 321 318 318 316 314 309 300 299 300 302 301 300 294 292 291 288 290 285 279 278 272
259 266 221 136 169 72 328 141 190 227 268 272 271 258 261 273 292 317 326 330 333 336 332 328 323 322 321 317 314 305 299 300 300 301 299 296 293 290 290 288 285 278 277 273
226 244 234 204 217 210 168 183 220 237 268 270 279 274 104 249 282 303 315 325 327 330 333 331 330 328 324 322 322 319 311 310 308 305 301 301 298 294 293 287 286 281 280 275
191 243 255 234 89 329 228 221 200 234 234 238 271 276 94 233 295 307 313 322 327 329 329 330 330 330 330 328 328 327 318 314 311 307 304 302 302 297 295 292 294 291 283 277
163 199 262 222 185 181 221 216 215 236 253 235 244 260 104 171 299 307 313 321 325 328 329 332 332 332 331 328 326 324 322 316 312 308 304 302 303 300 296 293 297 295 287 282
177 215 234 262 301 194 227 220 204 204 230 245 243 265 280 294 307 314 317 320 321 323 327 329 331 331 330 326 321 319 317 316 313 308 303 301 302 304 296 295 296 293 289 282
205 240 241 262 273 261 254 247 222 220 234 249 263 270 282 295 303 307 311 316 317 321 326 327 328 328 328 327 321 317 315 316 314 307 300 301 305 307 302 295 293 292 290 288
220 244 252 265 260 262 265 257 242 240 244 250 264 275 286 300 302 303 307 311 312 316 321 322 324 325 324 323 320 315 313 314 311 303 299 300 302 302 302 300 296 295 293 293
199 201 232 265 300 285 263 244 223 217 221 230 249 266 304 303 301 302 304 304 305 311 315 316 318 317 317 316 316 312 308 308 304 300 303 307 304 296 297 301 298 294 294 297
190 189 224 274 280 248 261 99 203 221 240 233 250 277 293 294 299 294 289 293 302 309 310 311 312 313 312 312 312 310 306 305 303 303 303 306 305 301 300 298 296 295 293 291
206 196 215 235 259 272 266 195 190 219 257 228 240 267 289 308 295 276 275 294 299 303 304 304 306 306 308 311 314 311 308 307 305 303 303 305 304 299 299 298 300 299 293 288
165 202 223 223 246 257 305 104 144 207 259 195 227 261 286 303 294 312 347 320 308 306 306 307 309 309 311 315 317 311 306 306 303 303 303 301 299 297 296 297 300 298 292 288
175 197 218 231 244 263 6 129 167 230 310 28 252 259 268 266 281 307 312 309 307 307 309 311 310 309 311 315 313 307 307 305 305 304 302 300 300 297 296 298 299 297 294 292
192 193 204 211 230 252 132 154 211 282 342 293 277 272 270 276 288 296 301 305 308 310 312 314 313 312 315 318 314 308 308 311 310 305 304 306 307 307 305 304 305 304 303 303
215 212 213 213 237 315 189 222 253 292 286 289 285 282 279 281 286 294 299 302 303 304 307 311 311 311 315 319 315 307 310 314 311 307 307 310 311 311 311 309 310 309 310 312
230 224 239 255 262 268 260 259 269 274 277 282 279 275 275 277 284 291 296 299 301 302 304 307 309 309 313 318 316 309 311 313 310 307 308 310 310 312 318 316 312 310 310 313
238 196 234 257 277 288 259 258 273 284 286 286 285 278 272 274 281 288 292 294 296 298 301 302 302 303 308 313 314 316 315 314 312 311 311 313 312 315 317 318 317 310 304 310
204 205 219 255 259 260 283 287 274 272 278 281 283 285 283 277 280 287 288 289 291 294 299 302 302 304 308 312 314 318 318 315 312 311 315 317 316 315 314 316 318 316 310 314